Location: B�hl
(48.6968°N, 8.1352°E)
Time: 01:10:29
(UTC+00:00)

Cosmos 1536 - Pass Details

Date: 08 March 2021
Orbit: 540 x 558 km, 82.5° (Epoch: 12 April)

Event Time Altitude Azimuth Distance (km) Brightness Sun altitude
Rises 19:14:02 0° 199° (SSW) 2,703 6.4 -19.1°
Reaches altitude 10° 19:16:13 10° 204° (SSW) 1,812 5.5 -19.4°
Maximum altitude 19:20:08 55° 282° (WNW) 659 3.5 -20.1°
Drops below altitude 10° 19:24:04 10° 2° (N) 1,819 5.6 -20.7°
Sets 19:26:16 0° 6° (N) 2,715 6.5 -21.0°
